WXForecasting.com
 BROWN COUNTY, SD  -  River Flood Warning River Flood Warning  
Aberdeen, SD - Weather Station Data
Daily Summary for April 21, 2017 Units:  Both    English   Metric
Next Day »
Daily Weekly Monthly Yearly Custom
  High: Low: Average:
Temperature: 64.5 °F /  18.1 °C 37.4 °F /  3 °C 50.7 °F /  10.4 °C
Dew Point: 45.0 °F /  7.2 °C 34.0 °F /  1.1 °C 38.7 °F /  3.7 °C
Humidity: 91% 38% 67%
Wind Speed: 6.0mph /  9.7km/h - 1.4mph /  2.3km/h
Wind Gust: 11.0mph /  17.7km/h - -
Wind- - NE
Pressure: 30.26 in /  1024.6 hPa 30.20 in /  1022.6 hPa -
Precipitation: 0.00 in /  0 mm    
Historical Graphs
 
 
Tabular Data for April 21, 2017
Time Temperature Dew Point Pressure Wind Wind Speed Wind Gust Humidity Rainfall Rate (Hourly) solar Conditions
00:14 42.4 °F /  5.8 °C 38.0 °F /  3.3 °C 30.20in /  1022.6hPa Calm     83% 0.00in /  0mm 0 W/m2
00:29 42.0 °F /  5.6 °C 38.0 °F /  3.3 °C 30.20in /  1022.6hPa Calm   1.0mph /  1.6km/h 85% 0.00in /  0mm 0 W/m2
00:45 41.4 °F /  5.2 °C 37.0 °F /  2.8 °C 30.20in /  1022.6hPa Calm     84% 0.00in /  0mm 0 W/m2
01:00 41.0 °F /  5 °C 37.0 °F /  2.8 °C 30.21in /  1022.9hPa Calm     86% 0.00in /  0mm 0 W/m2
01:15 40.1 °F /  4.5 °C 36.0 °F /  2.2 °C 30.21in /  1022.9hPa Calm     85% 0.00in /  0mm 0 W/m2
01:30 39.7 °F /  4.3 °C 36.0 °F /  2.2 °C 30.21in /  1022.9hPa Calm     86% 0.00in /  0mm 0 W/m2
01:45 39.2 °F /  4 °C 36.0 °F /  2.2 °C 30.21in /  1022.9hPa Calm     87% 0.00in /  0mm 0 W/m2
02:00 38.6 °F /  3.7 °C 35.0 °F /  1.7 °C 30.21in /  1022.9hPa Calm     87% 0.00in /  0mm 0 W/m2
02:15 38.9 °F /  3.8 °C 36.0 °F /  2.2 °C 30.21in /  1022.9hPa Calm     88% 0.00in /  0mm 0 W/m2
02:30 38.6 °F /  3.7 °C 35.0 °F /  1.7 °C 30.21in /  1022.9hPa Calm     88% 0.00in /  0mm 0 W/m2
02:45 38.2 °F /  3.4 °C 35.0 °F /  1.7 °C 30.21in /  1022.9hPa Calm     88% 0.00in /  0mm 0 W/m2
03:00 37.7 °F /  3.2 °C 35.0 °F /  1.7 °C 30.21in /  1022.9hPa Calm     88% 0.00in /  0mm 0 W/m2
03:15 37.7 °F /  3.2 °C 35.0 °F /  1.7 °C 30.21in /  1022.9hPa Calm     88% 0.00in /  0mm 0 W/m2
03:30 37.5 °F /  3.1 °C 34.0 °F /  1.1 °C 30.21in /  1022.9hPa Calm     88% 0.00in /  0mm 0 W/m2
03:45 37.4 °F /  3 °C 35.0 °F /  1.7 °C 30.20in /  1022.6hPa Calm   1.0mph /  1.6km/h 89% 0.00in /  0mm 0 W/m2
04:00 38.5 °F /  3.6 °C 36.0 °F /  2.2 °C 30.21in /  1022.9hPa Calm   2.0mph /  3.2km/h 90% 0.00in /  0mm 0 W/m2
04:15 38.8 °F /  3.8 °C 36.0 °F /  2.2 °C 30.21in /  1022.9hPa Calm   1.0mph /  1.6km/h 90% 0.00in /  0mm 0 W/m2
04:30 38.8 °F /  3.8 °C 36.0 °F /  2.2 °C 30.21in /  1022.9hPa Calm   3.0mph /  4.8km/h 89% 0.00in /  0mm 0 W/m2
04:45 39.2 °F /  4 °C 36.0 °F /  2.2 °C 30.21in /  1022.9hPa North 1.0mph /  1.6km/h 3.0mph /  4.8km/h 89% 0.00in /  0mm 0 W/m2
05:00 39.4 °F /  4.1 °C 37.0 °F /  2.8 °C 30.21in /  1022.9hPa North 1.0mph /  1.6km/h 3.0mph /  4.8km/h 90% 0.00in /  0mm 0 W/m2
05:15 39.3 °F /  4.1 °C 36.0 °F /  2.2 °C 30.22in /  1023.2hPa North 2.0mph /  3.2km/h 2.0mph /  3.2km/h 89% 0.00in /  0mm 0 W/m2
05:30 39.1 °F /  3.9 °C 36.0 °F /  2.2 °C 30.22in /  1023.2hPa Calm   2.0mph /  3.2km/h 89% 0.00in /  0mm 0 W/m2
05:45 38.7 °F /  3.7 °C 36.0 °F /  2.2 °C 30.22in /  1023.2hPa Calm   3.0mph /  4.8km/h 89% 0.00in /  0mm 0 W/m2
06:00 38.1 °F /  3.4 °C 35.0 °F /  1.7 °C 30.22in /  1023.2hPa Calm   2.0mph /  3.2km/h 89% 0.00in /  0mm 0 W/m2
06:15 37.8 °F /  3.2 °C 35.0 °F /  1.7 °C 30.22in /  1023.2hPa North 1.0mph /  1.6km/h 3.0mph /  4.8km/h 89% 0.00in /  0mm 0 W/m2
06:30 37.4 °F /  3 °C 35.0 °F /  1.7 °C 30.22in /  1023.2hPa North 2.0mph /  3.2km/h 3.0mph /  4.8km/h 89% 0.00in /  0mm 0 W/m2
06:45 37.6 °F /  3.1 °C 35.0 °F /  1.7 °C 30.22in /  1023.2hPa Calm   4.0mph /  6.4km/h 89% 0.00in /  0mm 7 W/m2
07:00 37.6 °F /  3.1 °C 35.0 °F /  1.7 °C 30.23in /  1023.6hPa Calm   1.0mph /  1.6km/h 90% 0.00in /  0mm 14 W/m2
07:15 37.9 °F /  3.3 °C 35.0 °F /  1.7 °C 30.23in /  1023.6hPa Calm     90% 0.00in /  0mm 30 W/m2
07:30 38.5 °F /  3.6 °C 36.0 °F /  2.2 °C 30.24in /  1023.9hPa ENE 2.0mph /  3.2km/h 3.0mph /  4.8km/h 90% 0.00in /  0mm 46 W/m2
07:45 38.0 °F /  3.3 °C 35.0 °F /  1.7 °C 30.25in /  1024.3hPa Calm   4.0mph /  6.4km/h 90% 0.00in /  0mm 84 W/m2
08:00 37.6 °F /  3.1 °C 35.0 °F /  1.7 °C 30.25in /  1024.3hPa NE 1.0mph /  1.6km/h 3.0mph /  4.8km/h 90% 0.00in /  0mm 109 W/m2
08:15 38.8 °F /  3.8 °C 36.0 °F /  2.2 °C 30.25in /  1024.3hPa NE 1.0mph /  1.6km/h 3.0mph /  4.8km/h 91% 0.00in /  0mm 207 W/m2
08:30 41.0 °F /  5 °C 39.0 °F /  3.9 °C 30.25in /  1024.3hPa Calm   3.0mph /  4.8km/h 91% 0.00in /  0mm 264 W/m2
08:46 42.7 °F /  5.9 °C 40.0 °F /  4.4 °C 30.25in /  1024.3hPa NE 3.0mph /  4.8km/h 5.0mph /  8km/h 91% 0.00in /  0mm 308 W/m2
09:01 44.2 °F /  6.8 °C 42.0 °F /  5.6 °C 30.25in /  1024.3hPa Calm   5.0mph /  8km/h 91% 0.00in /  0mm 353 W/m2
09:16 45.9 °F /  7.7 °C 43.0 °F /  6.1 °C 30.25in /  1024.3hPa ENE 4.0mph /  6.4km/h 5.0mph /  8km/h 90% 0.00in /  0mm 403 W/m2
09:31 48.2 °F /  9 °C 44.0 °F /  6.7 °C 30.25in /  1024.3hPa ENE 3.0mph /  4.8km/h 4.0mph /  6.4km/h 85% 0.00in /  0mm 443 W/m2
09:46 50.1 °F /  10.1 °C 44.0 °F /  6.7 °C 30.25in /  1024.3hPa NE 2.0mph /  3.2km/h 7.0mph /  11.3km/h 79% 0.00in /  0mm 490 W/m2
10:01 51.3 °F /  10.7 °C 44.0 °F /  6.7 °C 30.25in /  1024.3hPa NE 3.0mph /  4.8km/h 6.0mph /  9.7km/h 76% 0.00in /  0mm 531 W/m2
10:16 52.6 °F /  11.4 °C 44.0 °F /  6.7 °C 30.25in /  1024.3hPa NE 3.0mph /  4.8km/h 9.0mph /  14.5km/h 73% 0.00in /  0mm 571 W/m2
10:31 53.7 °F /  12.1 °C 45.0 °F /  7.2 °C 30.25in /  1024.3hPa NE 1.0mph /  1.6km/h 8.0mph /  12.9km/h 72% 0.00in /  0mm 608 W/m2
10:46 54.6 °F /  12.6 °C 43.0 °F /  6.1 °C 30.25in /  1024.3hPa NE 3.0mph /  4.8km/h 7.0mph /  11.3km/h 64% 0.00in /  0mm 645 W/m2
11:01 55.7 °F /  13.2 °C 43.0 °F /  6.1 °C 30.25in /  1024.3hPa NE 2.0mph /  3.2km/h 7.0mph /  11.3km/h 62% 0.00in /  0mm 679 W/m2
11:16 56.2 °F /  13.4 °C 44.0 °F /  6.7 °C 30.25in /  1024.3hPa NE 5.0mph /  8km/h 6.0mph /  9.7km/h 64% 0.00in /  0mm 712 W/m2
11:31 57.4 °F /  14.1 °C 43.0 °F /  6.1 °C 30.26in /  1024.6hPa ENE 1.0mph /  1.6km/h 11.0mph /  17.7km/h 59% 0.00in /  0mm 742 W/m2
11:46 58.4 °F /  14.7 °C 43.0 °F /  6.1 °C 30.25in /  1024.3hPa NE 4.0mph /  6.4km/h 9.0mph /  14.5km/h 57% 0.00in /  0mm 766 W/m2
12:01 58.2 °F /  14.6 °C 41.0 °F /  5 °C 30.25in /  1024.3hPa North 2.0mph /  3.2km/h 8.0mph /  12.9km/h 54% 0.00in /  0mm 803 W/m2
12:17 58.2 °F /  14.6 °C 41.0 °F /  5 °C 30.25in /  1024.3hPa ENE 2.0mph /  3.2km/h 6.0mph /  9.7km/h 54% 0.00in /  0mm 176 W/m2
12:32 59.5 °F /  15.3 °C 43.0 °F /  6.1 °C 30.25in /  1024.3hPa ENE 2.0mph /  3.2km/h 7.0mph /  11.3km/h 55% 0.00in /  0mm 914 W/m2
12:46 60.7 °F /  15.9 °C 44.0 °F /  6.7 °C 30.25in /  1024.3hPa NNE 1.0mph /  1.6km/h 6.0mph /  9.7km/h 54% 0.00in /  0mm 949 W/m2
13:02 60.2 °F /  15.7 °C 42.0 °F /  5.6 °C 30.25in /  1024.3hPa North 5.0mph /  8km/h 11.0mph /  17.7km/h 52% 0.00in /  0mm 984 W/m2
13:17 59.6 °F /  15.3 °C 41.0 °F /  5 °C 30.25in /  1024.3hPa NE 3.0mph /  4.8km/h 7.0mph /  11.3km/h 50% 0.00in /  0mm 209 W/m2
13:31 60.9 °F /  16.1 °C 41.0 °F /  5 °C 30.25in /  1024.3hPa North 1.0mph /  1.6km/h 8.0mph /  12.9km/h 48% 0.00in /  0mm 991 W/m2
13:47 60.7 °F /  15.9 °C 41.0 °F /  5 °C 30.25in /  1024.3hPa East 1.0mph /  1.6km/h 8.0mph /  12.9km/h 48% 0.00in /  0mm 301 W/m2
14:02 62.3 °F /  16.8 °C 45.0 °F /  7.2 °C 30.25in /  1024.3hPa East 1.0mph /  1.6km/h 6.0mph /  9.7km/h 53% 0.00in /  0mm 981 W/m2
14:17 62.7 °F /  17.1 °C 42.0 °F /  5.6 °C 30.24in /  1023.9hPa SSE 3.0mph /  4.8km/h 9.0mph /  14.5km/h 47% 0.00in /  0mm 904 W/m2
14:32 62.9 °F /  17.2 °C 41.0 °F /  5 °C 30.24in /  1023.9hPa NE 4.0mph /  6.4km/h 10.0mph /  16.1km/h 45% 0.00in /  0mm 993 W/m2
14:47 61.6 °F /  16.4 °C 38.0 °F /  3.3 °C 30.25in /  1024.3hPa Calm   10.0mph /  16.1km/h 42% 0.00in /  0mm 642 W/m2
15:02 63.4 °F /  17.4 °C 41.0 °F /  5 °C 30.24in /  1023.9hPa Calm   5.0mph /  8km/h 44% 0.00in /  0mm 919 W/m2
15:17 63.8 °F /  17.7 °C 44.0 °F /  6.7 °C 30.24in /  1023.9hPa SW 3.0mph /  4.8km/h 11.0mph /  17.7km/h 49% 0.00in /  0mm 969 W/m2
15:32 64.1 °F /  17.8 °C 41.0 °F /  5 °C 30.25in /  1024.3hPa East 1.0mph /  1.6km/h 7.0mph /  11.3km/h 43% 0.00in /  0mm 214 W/m2
16:02 62.1 °F /  16.7 °C 40.0 °F /  4.4 °C 30.24in /  1023.9hPa NNE 3.0mph /  4.8km/h 6.0mph /  9.7km/h 45% 0.00in /  0mm 220 W/m2
16:17 63.6 °F /  17.6 °C 42.0 °F /  5.6 °C 30.24in /  1023.9hPa NE 4.0mph /  6.4km/h 9.0mph /  14.5km/h 45% 0.00in /  0mm 752 W/m2
16:32 63.5 °F /  17.5 °C 39.0 °F /  3.9 °C 30.24in /  1023.9hPa East 2.0mph /  3.2km/h 8.0mph /  12.9km/h 41% 0.00in /  0mm 158 W/m2
16:47 63.7 °F /  17.6 °C 39.0 °F /  3.9 °C 30.23in /  1023.6hPa Calm   6.0mph /  9.7km/h 41% 0.00in /  0mm 650 W/m2
17:02 64.5 °F /  18.1 °C 40.0 °F /  4.4 °C 30.23in /  1023.6hPa SW 3.0mph /  4.8km/h 6.0mph /  9.7km/h 41% 0.00in /  0mm 527 W/m2
17:17 64.0 °F /  17.8 °C 38.0 °F /  3.3 °C 30.23in /  1023.6hPa NE 4.0mph /  6.4km/h 10.0mph /  16.1km/h 39% 0.00in /  0mm 547 W/m2
17:32 63.6 °F /  17.6 °C 39.0 °F /  3.9 °C 30.23in /  1023.6hPa Calm   9.0mph /  14.5km/h 40% 0.00in /  0mm 476 W/m2
17:47 64.1 °F /  17.8 °C 39.0 °F /  3.9 °C 30.23in /  1023.6hPa NE 3.0mph /  4.8km/h 6.0mph /  9.7km/h 40% 0.00in /  0mm 376 W/m2
18:02 63.7 °F /  17.6 °C 37.0 °F /  2.8 °C 30.23in /  1023.6hPa NE 4.0mph /  6.4km/h 10.0mph /  16.1km/h 38% 0.00in /  0mm 236 W/m2
18:17 63.6 °F /  17.6 °C 39.0 °F /  3.9 °C 30.23in /  1023.6hPa North 3.0mph /  4.8km/h 10.0mph /  16.1km/h 40% 0.00in /  0mm 318 W/m2
18:32 63.4 °F /  17.4 °C 39.0 °F /  3.9 °C 30.23in /  1023.6hPa NE 4.0mph /  6.4km/h 10.0mph /  16.1km/h 40% 0.00in /  0mm 107 W/m2
18:47 62.9 °F /  17.2 °C 38.0 °F /  3.3 °C 30.23in /  1023.6hPa Calm   5.0mph /  8km/h 40% 0.00in /  0mm 49 W/m2
19:02 62.7 °F /  17.1 °C 39.0 °F /  3.9 °C 30.23in /  1023.6hPa ENE 6.0mph /  9.7km/h 10.0mph /  16.1km/h 42% 0.00in /  0mm 46 W/m2
19:17 62.3 °F /  16.8 °C 39.0 °F /  3.9 °C 30.23in /  1023.6hPa NE 5.0mph /  8km/h 9.0mph /  14.5km/h 43% 0.00in /  0mm 35 W/m2
19:32 62.0 °F /  16.7 °C 39.0 °F /  3.9 °C 30.23in /  1023.6hPa NE 3.0mph /  4.8km/h 7.0mph /  11.3km/h 43% 0.00in /  0mm 25 W/m2
19:47 61.5 °F /  16.4 °C 39.0 °F /  3.9 °C 30.22in /  1023.2hPa NNE 3.0mph /  4.8km/h 5.0mph /  8km/h 44% 0.00in /  0mm 16 W/m2
20:02 60.7 °F /  15.9 °C 39.0 °F /  3.9 °C 30.23in /  1023.6hPa NE 3.0mph /  4.8km/h 3.0mph /  4.8km/h 45% 0.00in /  0mm 11 W/m2
20:17 59.9 °F /  15.5 °C 39.0 °F /  3.9 °C 30.23in /  1023.6hPa NE 1.0mph /  1.6km/h 3.0mph /  4.8km/h 46% 0.00in /  0mm 7 W/m2
20:32 59.0 °F /  15 °C 39.0 °F /  3.9 °C 30.23in /  1023.6hPa NE 2.0mph /  3.2km/h 4.0mph /  6.4km/h 47% 0.00in /  0mm 0 W/m2
20:47 58.1 °F /  14.5 °C 39.0 °F /  3.9 °C 30.24in /  1023.9hPa Calm   2.0mph /  3.2km/h 49% 0.00in /  0mm 0 W/m2
21:02 57.0 °F /  13.9 °C 39.0 °F /  3.9 °C 30.25in /  1024.3hPa Calm   1.0mph /  1.6km/h 51% 0.00in /  0mm 0 W/m2
21:17 56.0 °F /  13.3 °C 38.0 °F /  3.3 °C 30.25in /  1024.3hPa Calm   2.0mph /  3.2km/h 52% 0.00in /  0mm 0 W/m2
21:32 55.0 °F /  12.8 °C 38.0 °F /  3.3 °C 30.25in /  1024.3hPa Calm     54% 0.00in /  0mm 0 W/m2
21:47 53.6 °F /  12 °C 38.0 °F /  3.3 °C 30.25in /  1024.3hPa Calm     57% 0.00in /  0mm 0 W/m2
22:02 52.2 °F /  11.2 °C 38.0 °F /  3.3 °C 30.25in /  1024.3hPa Calm     59% 0.00in /  0mm 0 W/m2
22:17 50.7 °F /  10.4 °C 38.0 °F /  3.3 °C 30.26in /  1024.6hPa Calm     62% 0.00in /  0mm 0 W/m2
22:32 49.3 °F /  9.6 °C 37.0 °F /  2.8 °C 30.26in /  1024.6hPa Calm     64% 0.00in /  0mm 0 W/m2
22:47 48.1 °F /  8.9 °C 38.0 °F /  3.3 °C 30.26in /  1024.6hPa Calm     67% 0.00in /  0mm 0 W/m2
23:02 47.3 °F /  8.5 °C 38.0 °F /  3.3 °C 30.26in /  1024.6hPa Calm     69% 0.00in /  0mm 0 W/m2
23:17 46.4 °F /  8 °C 37.0 °F /  2.8 °C 30.26in /  1024.6hPa Calm     71% 0.00in /  0mm 0 W/m2
23:32 45.9 °F /  7.7 °C 37.0 °F /  2.8 °C 30.26in /  1024.6hPa Calm     72% 0.00in /  0mm 0 W/m2
23:47 45.0 °F /  7.2 °C 37.0 °F /  2.8 °C 30.26in /  1024.6hPa Calm     74% 0.00in /  0mm 0 W/m2